Location: Newark
(35.2672°N, 80.7344°W)
Time: 16:39:23
(UTC+00:00)

Tiros 1 - Pass Details

Date: 20 January 2020
Orbit: 631 x 664 km, 48.4° (Epoch: 23 February)

Event Time Altitude Azimuth Distance (km) Brightness Sun altitude
Rises 20:23:12 0° 259° (W) 2,942 11.4 21.6°
Reaches altitude 10° 20:25:43 10° 269° (W) 2,040 10.5 21.3°
Maximum altitude 20:29:59 34° 334° (NNW) 1,078 8.3 20.7°
Drops below altitude 10° 20:34:19 10° 40° (NE) 2,065 9.2 20.1°
Sets 20:36:52 0° 49° (NE) 2,983 9.9 19.7°
